Pittsburgh Allegheny Co., PA

4:12 PM EST on November 24, 2017 (GMT -0500)
Allegheny County

Weather History for KAGC - February, 2013

Change the Weather History Date:

Saturday, February 2, 2013

  Actual Average Record
Temperature  
Mean Temperature 14 °F -  
Max Temperature 23 °F 43 °F 65 °F (1989)
Min Temperature 6 °F 26 °F 6 °F (2013)
Degree Days  
Heating Degree Days 50    
Moisture  
Dew Point 14 °F    
Average Humidity 86    
Maximum Humidity 100    
Minimum Humidity 70    
Precipitation  
Precipitation 0.00 in - - ()
Sea Level Pressure  
Sea Level Pressure 30.07 in    
Wind  
Wind Speed 9 mph (SSW)    
Max Wind Speed 16 mph    
Max Gust Speed 22 mph    
Visibility 4 miles    
Events Snow    
Averages and records for this station are not official NWS values.
T = Trace of Precipitation, MM = Missing Value Source: NWS Daily Summary

Daily Weather History Graph

Daily Weather History Graph

Search for Another Location

Airport or City:

Trip Planner

Search our weather history database for the weather conditions in past years. The results will help you decide how hot, cold, wet, or windy it might be!

Date:

Astronomy

Feb. 02, 2013 Rise Set
Actual Time 7:27 AM EST 5:39 PM EST
Civil Twilight 6:59 AM EST 6:08 PM EST
Nautical Twilight 6:26 AM EST 6:40 PM EST
Astronomical Twilight 5:54 AM EST 7:12 PM EST
Moon No Moon Rise 10:35 AM EST (2/2)
Length of Visible Light 11h 09m
Length of Day
10h 12m
Waning Gibbous, 60% of the Moon is Illuminated
Feb 2
Waning Gibbous
Feb 3
Last Quarter
Feb 10
New
Feb 17
First Quarter
Feb 25
Full

Hourly Weather History & Observations

Time (EST) Temp. Windchill Dew Point Humidity Pressure Visibility Wind Dir Wind Speed Gust Speed Precip Events Conditions
12:53 AM 9.0 °F -2.2 °F 1.0 °F 70% 30.35 in 10.0 mi SW 6.9 mph - N/A   Clear
1:53 AM 8.1 °F -3.2 °F 1.9 °F 76% 30.34 in 10.0 mi SSW 6.9 mph - N/A   Clear
2:53 AM 7.0 °F -3.3 °F 1.0 °F 77% 30.34 in 10.0 mi South 5.8 mph - N/A   Clear
3:53 AM 6.8 °F -4.8 °F 1.4 °F 79% 30.23 in 10.0 mi South 6.9 mph - N/A   Clear
4:53 AM 7.0 °F -6.6 °F 1.9 °F 80% 30.31 in 10.0 mi South 9.2 mph - N/A   Clear
5:53 AM 8.1 °F -5.3 °F 1.9 °F 76% 30.29 in 10.0 mi South 9.2 mph - N/A   Partly Cloudy
6:53 AM 9.0 °F -5.1 °F 3.0 °F 77% 30.28 in 10.0 mi South 10.4 mph - N/A   Overcast
7:53 AM 10.0 °F -3.7 °F 3.9 °F 76% 30.28 in 10.0 mi South 10.4 mph - N/A   Mostly Cloudy
8:53 AM 12.0 °F -2.0 °F 3.9 °F 70% 30.26 in 10.0 mi South 11.5 mph 17.3 mph N/A   Mostly Cloudy
9:53 AM 12.9 °F -2.2 °F 7.0 °F 77% 30.23 in 4.0 mi SSW 13.8 mph - 0.00 in Snow Light Snow
10:02 AM 12.2 °F -3.1 °F 6.8 °F 79% 30.14 in 1.8 mi South 13.8 mph - 0.00 in Snow Light Snow
10:09 AM 14.0 °F 0.5 °F 8.6 °F 79% 30.13 in 2.0 mi South 11.5 mph - 0.00 in Snow Light Snow
10:53 AM 16.0 °F 4.4 °F 10.0 °F 77% 30.20 in 2.0 mi South 9.2 mph 17.3 mph 0.00 in Snow Light Snow
11:53 AM 19.0 °F 6.1 °F 12.0 °F 74% 30.16 in 2.5 mi South 12.7 mph 20.7 mph 0.00 in Snow Light Snow
12:53 PM 19.9 °F 6.7 °F 12.9 °F 74% 30.10 in 2.5 mi SSW 13.8 mph 21.9 mph 0.00 in   Haze
1:19 PM 19.4 °F 5.0 °F 14.0 °F 80% 30.00 in 2.5 mi SSW 16.1 mph 21.9 mph 0.00 in Snow Light Snow
1:53 PM 21.0 °F 9.9 °F 15.1 °F 78% 30.06 in 2.5 mi South 10.4 mph 19.6 mph 0.00 in Snow Light Snow
1:56 PM 21.2 °F 8.9 °F 15.8 °F 80% 29.98 in 4.0 mi South 12.7 mph 19.6 mph 0.00 in Snow Light Snow
2:03 PM 21.2 °F 9.5 °F 15.8 °F 80% 29.97 in 2.5 mi South 11.5 mph - 0.00 in Snow Light Snow
2:53 PM 21.0 °F 9.9 °F 16.0 °F 81% 30.04 in 5.0 mi South 10.4 mph - 0.00 in   Haze
3:08 PM 21.2 °F 10.9 °F 15.8 °F 80% 29.95 in 1.8 mi South 9.2 mph - 0.00 in Snow Light Snow
3:53 PM 21.9 °F 11.7 °F 18.0 °F 85% 30.02 in 1.0 mi South 9.2 mph - 0.00 in Snow Light Snow
4:11 PM 21.2 °F 10.9 °F 17.6 °F 86% 29.94 in 2.0 mi South 9.2 mph - 0.00 in Snow Light Snow
4:19 PM 21.2 °F 10.9 °F 17.6 °F 86% 29.94 in 1.2 mi South 9.2 mph - 0.00 in Snow Light Snow
4:53 PM 21.9 °F 13.4 °F 19.0 °F 89% 30.02 in 0.8 mi South 6.9 mph - 0.00 in Snow Light Snow
5:03 PM 21.2 °F 11.7 °F 19.4 °F 93% 29.94 in 1.5 mi SSW 8.1 mph - 0.00 in Snow Light Snow
5:19 PM 21.2 °F 12.6 °F 19.4 °F 93% 29.94 in 2.0 mi SSW 6.9 mph - 0.00 in Snow Light Snow
5:38 PM 21.2 °F 13.6 °F 19.4 °F 93% 29.94 in 1.2 mi SSW 5.8 mph - 0.00 in Snow Light Snow
5:45 PM 21.2 °F 11.7 °F 19.4 °F 93% 29.94 in 1.2 mi South 8.1 mph - 0.00 in Snow Light Snow
5:53 PM 21.9 °F 13.4 °F 19.9 °F 92% 30.02 in 1.0 mi South 6.9 mph - 0.00 in Snow Light Snow
6:53 PM 21.9 °F 14.5 °F 19.9 °F 92% 30.03 in 1.5 mi SSW 5.8 mph - 0.00 in Snow Light Snow
7:24 PM 21.2 °F 13.6 °F 21.2 °F 100% 29.95 in 2.0 mi SSW 5.8 mph - 0.00 in Snow Light Snow
7:37 PM 21.2 °F 14.9 °F 21.2 °F 100% 29.95 in 1.5 mi SSW 4.6 mph - 0.00 in Snow Light Snow
7:53 PM 21.9 °F 14.5 °F 21.0 °F 96% 30.03 in 1.5 mi SSW 5.8 mph - 0.00 in Snow Light Snow
8:32 PM 21.2 °F 14.9 °F 21.2 °F 100% 29.95 in 2.0 mi SSW 4.6 mph - 0.00 in Snow Light Snow
8:41 PM 21.2 °F 13.6 °F 21.2 °F 100% 29.95 in 1.8 mi SSW 5.8 mph - 0.00 in Snow Light Snow
8:48 PM 21.2 °F 14.9 °F 21.2 °F 100% 29.95 in 3.0 mi South 4.6 mph - 0.00 in Snow Light Snow
8:53 PM 21.9 °F 15.7 °F 21.0 °F 96% 30.03 in 3.0 mi South 4.6 mph - 0.00 in Snow Light Snow
9:02 PM 21.2 °F 14.9 °F 21.2 °F 100% 29.94 in 2.5 mi South 4.6 mph - 0.00 in Snow Light Snow
9:53 PM 23.0 °F 13.9 °F 21.0 °F 92% 30.02 in 2.5 mi SSW 8.1 mph - 0.00 in Snow Light Snow
9:55 PM 23.0 °F 15.8 °F 21.2 °F 93% 29.94 in 3.0 mi SSW 5.8 mph - 0.00 in Snow Light Snow
10:53 PM 21.9 °F 14.5 °F 21.0 °F 96% 30.01 in 7.0 mi SW 5.8 mph - 0.00 in   Overcast
11:53 PM 21.9 °F 14.5 °F 21.0 °F 96% 30.00 in 9.0 mi SW 5.8 mph - N/A   Overcast